Location: *
(2.5500°S, 65.9667°W)
Time: 16:23:54
(UTC+00:00)

A-11 Canister half - Pass Details

Date: 20 April 2024
Orbit: 1525 x 1683 km, 47.3° (Epoch: 21 May)

Event Time Altitude Azimuth Distance (km) Brightness Sun altitude
Exits shadow 08:25:00 36° 310° (NW) 2,377 9.6 -29.3°
Drops below altitude 10° 08:33:46 10° 13° (NNE) 3,888 11.4 -27.2°
Sets 08:37:21 0° 22° (NNE) 4,891 12.1 -26.3°
